Hourly Data Report for September 08, 2017

All times are specified in Local Standard Time (LST). Add 1 hour to adjust for Daylight Saving Time where and when it is observed.

BAKER LAKE A
NUNAVUT

64°17'56.000" N
96°04'40.000" W
18.60 m
2300503
71926
YBK

Download Data

Hourly Data (September 2017)
Hourly Data Report for September 8, 2017
Temp Definition
°C
Dew Point Temp Definition
°C
Rel Hum Definition
%
Wind Dir Definition
10's deg

Wind Spd Definition
km/h
Visibility Definition
km
Stn Press Definition
kPa
Hmdx Definition


Wind Chill Definition


Weather Definition


TIME
00:00 Legend Double Dagger 10.6 9.1 91 11 19 24.1 99.54     Cloudy
01:00 Legend Double Dagger 10.6 9.2 91 11 17 24.1 99.40     LegendNANA
02:00 Legend Double Dagger 10.4 9.2 92 12 9 24.1 99.29     Snow
03:00 Legend Double Dagger 9.6 8.0 89 36 1 24.1 99.20     Mostly Cloudy
04:00 Legend Double Dagger 9.6 8.3 91 16 4 24.1 99.06     LegendNANA
05:00 Legend Double Dagger 11.6 9.6 87 20 10 24.1 98.93     LegendNANA
06:00 Legend Double Dagger 12.0 9.9 87 20 10 24.1 98.82     Cloudy
07:00 Legend Double Dagger 13.0 10.5 85 23 16 24.1 98.73     Fog
08:00 Legend Double Dagger 13.7 10.9 83 21 14 32.2 98.61     LegendNANA
09:00 Legend Double Dagger 15.2 11.3 77 23 7 32.2 98.50     Cloudy
10:00 Legend Double Dagger 16.0 11.4 74 20 17 24.1 98.41     LegendNANA
11:00 Legend Double Dagger 19.7 11.8 60 24 29 32.2 98.36     LegendNANA
12:00 Legend Double Dagger 22.8 12.2 51 24 40 32.2 98.25 25   Mostly Cloudy
13:00 Legend Double Dagger 22.9 12.9 53 26 34 32.2 98.25 26   LegendNANA
14:00 Legend Double Dagger 24.6 12.4 46 26 33 32.2 98.28 27   LegendNANA
15:00 Legend Double Dagger 22.1 12.2 53 28 57 32.2 98.30     Mostly Cloudy
16:00 Legend Double Dagger 19.9 11.6 59 28 58 32.2 98.44     LegendNANA
17:00 Legend Double Dagger 18.5 9.9 57 28 50 32.2 98.53     LegendNANA
18:00 Legend Double Dagger 18.1 8.7 54 27 39 32.2 98.62     Mostly Cloudy
19:00 Legend Double Dagger 16.4 7.1 54 28 52 32.2 98.75     LegendNANA
20:00 Legend Double Dagger 14.3 6.5 59 27 27 24.1 98.85     LegendNANA
21:00 Legend Double Dagger 13.3 5.9 61 26 27 24.1 98.89     Mainly Clear
22:00 Legend Double Dagger 12.8 5.2 60 26 31 24.1 98.91     LegendNANA
23:00 Legend Double Dagger 13.2 5.7 60 25 26 24.1 98.93     LegendNANA

Notes on Data Quality.

Legend

  • E = Estimated
  • M = Missing
  • NA = Not Available
  • ‡ = Partner data that is not subject to review by the National Climate Archives
Date modified: